{"data":{"norad_id":56347,"epoch":"2026-05-24T22:55:40.778112Z","epoch_age_seconds":89099,"freshness":"FRESH","line1":"1 56347U 23058AG  26144.95533308  .00000093  00000+0  10509-4 0  9996","line2":"2 56347  97.4483 146.0460 0001796  79.0835 281.0594 15.05653936169679","mean_motion":15.05653936,"eccentricity":0.0001796,"inclination_deg":97.4483,"raan_deg":146.046,"arg_perigee_deg":79.0835,"mean_anomaly_deg":281.0594,"bstar":1.0509e-5,"rev_number":16967,"period_min":95.63950689928,"perigee_km":548.25487733553,"apogee_km":550.74328421574,"semimajor_km":6927.6360807756,"source":"CELESTRAK","updated_at":"2026-05-25T13:38:18.006193Z"}}